| time (UTC) | temp F | wind direction | speed MPH | gust MPH | rain 1hr in | rain 24hr in | rain mn in | humidity % | barometer mb |
| 20260902083302 | 70 | 80 | 0.0 | 0.0 | 0.00 | 0.22 | 0.04 | 94 | 1017.6 |
| 20260902082759 | 69 | 80 | 0.0 | 0.0 | 0.01 | 0.22 | 0.04 | 94 | 1017.6 |
| 20260902082519 | 69 | 80 | 0.0 | 0.0 | 0.01 | 0.22 | 0.04 | 94 | 1017.6 |
| 20260902081757 | 69 | 80 | 0.0 | 0.0 | 0.01 | 0.22 | 0.04 | 94 | 1017.5 |
| 20260902081258 | 69 | 80 | 0.0 | 0.0 | 0.01 | 0.22 | 0.04 | 94 | 1017.5 |
| 20260902080758 | 69 | 80 | 0.0 | 0.0 | 0.01 | 0.22 | 0.04 | 94 | 1017.5 |
| 20260902080533 | 69 | 80 | 0.0 | 0.0 | 0.01 | 0.22 | 0.04 | 94 | 1017.5 |
| 20260902075759 | 69 | 80 | 0.0 | 0.0 | 0.01 | 0.22 | 0.04 | 94 | 1017.4 |
| 20260902075259 | 69 | 80 | 0.0 | 0.0 | 0.01 | 0.22 | 0.04 | 94 | 1017.5 |
| 20260902074757 | 69 | 80 | 0.0 | 0.0 | 0.01 | 0.22 | 0.04 | 94 | 1017.4 |
| 20260902074256 | 69 | 80 | 0.0 | 0.0 | 0.01 | 0.22 | 0.04 | 94 | 1017.4 |
| 20260902073754 | 69 | 80 | 0.0 | 0.0 | 0.01 | 0.22 | 0.04 | 94 | 1017.3 |
| 20260902073253 | 69 | 80 | 0.0 | 0.0 | 0.01 | 0.22 | 0.04 | 94 | 1017.1 |
| 20260902072751 | 69 | 80 | 0.0 | 0.0 | 0.00 | 0.21 | 0.03 | 94 | 1017.2 |
| 20260902072250 | 69 | 80 | 0.0 | 0.0 | 0.00 | 0.21 | 0.03 | 94 | 1017.1 |
| 20260902071748 | 69 | 80 | 0.0 | 0.0 | 0.00 | 0.21 | 0.03 | 94 | 1017.1 |
| 20260902071248 | 70 | 80 | 0.0 | 0.0 | 0.00 | 0.21 | 0.03 | 94 | 1017.0 |
| 20260902070747 | 70 | 80 | 0.0 | 0.0 | 0.00 | 0.21 | 0.03 | 94 | 1016.9 |
| 20260902070251 | 70 | 80 | 0.0 | 0.0 | 0.00 | 0.21 | 0.03 | 94 | 1016.9 |
| 20260902065749 | 70 | 80 | 0.0 | 0.0 | 0.00 | 0.21 | 0.03 | 94 | 1016.9 |
| 20260902065245 | 70 | 80 | 0.0 | 0.0 | 0.00 | 0.21 | 0.03 | 94 | 1017.1 |
| 20260902065019 | 70 | 80 | 0.0 | 0.0 | 0.00 | 0.21 | 0.03 | 94 | 1017.0 |
| 20260902064246 | 70 | 80 | 0.0 | 0.0 | 0.00 | 0.21 | 0.03 | 94 | 1016.9 |
| 20260902063746 | 70 | 80 | 0.0 | 0.0 | 0.00 | 0.21 | 0.03 | 94 | 1016.8 |
| 20260902063244 | 70 | 80 | 0.0 | 0.0 | 0.00 | 0.21 | 0.03 | 94 | 1016.8 |
| 20260902062741 | 70 | 80 | 0.0 | 0.0 | 0.00 | 0.21 | 0.03 | 94 | 1016.8 |
| 20260902062511 | 70 | 80 | 0.0 | 0.0 | 0.00 | 0.21 | 0.03 | 94 | 1016.7 |
| 20260902062013 | 70 | 80 | 0.0 | 0.0 | 0.00 | 0.21 | 0.03 | 94 | 1016.6 |
| 20260902061243 | 71 | 80 | 0.0 | 0.0 | 0.00 | 0.21 | 0.03 | 94 | 1016.6 |
| 20260902060738 | 71 | 80 | 0.0 | 0.0 | 0.00 | 0.21 | 0.03 | 94 | 1016.5 |
| 20260902060239 | 71 | 80 | 0.0 | 0.0 | 0.00 | 0.21 | 0.03 | 94 | 1016.4 |
| 20260902055737 | 71 | 80 | 0.0 | 0.0 | 0.00 | 0.21 | 0.03 | 94 | 1016.3 |
| 20260902055235 | 71 | 80 | 0.0 | 0.0 | 0.00 | 0.21 | 0.03 | 94 | 1016.4 |
| 20260902054738 | 71 | 80 | 0.0 | 0.0 | 0.00 | 0.21 | 0.03 | 94 | 1016.5 |
| 20260902054720 | 71 | 80 | 0.0 | 0.0 | 0.00 | 0.21 | 0.03 | 94 | 1016.4 |
| 20260902053951 | 71 | 80 | 0.0 | 0.0 | 0.00 | 0.21 | 0.03 | 94 | 1016.6 |
| 20260902053458 | 71 | 80 | 0.0 | 0.0 | 0.01 | 0.21 | 0.03 | 94 | 1016.6 |
| 20260902052730 | 71 | 80 | 0.0 | 0.0 | 0.01 | 0.21 | 0.03 | 93 | 1016.5 |
| 20260902052455 | 71 | 80 | 0.0 | 0.0 | 0.02 | 0.21 | 0.03 | 93 | 1016.5 |
| 20260902051729 | 71 | 80 | 0.0 | 0.0 | 0.02 | 0.21 | 0.03 | 93 | 1016.5 |
| 20260902051231 | 71 | 80 | 0.0 | 0.0 | 0.02 | 0.21 | 0.03 | 94 | 1016.6 |
| 20260902050729 | 71 | 80 | 0.0 | 0.0 | 0.03 | 0.21 | 0.03 | 94 | 1016.7 |
| 20260902050452 | 71 | 80 | 0.0 | 0.0 | 0.03 | 0.21 | 0.03 | 93 | 1016.9 |
| 20260902045731 | 72 | 80 | 0.0 | 0.0 | 0.03 | 0.21 | 0.03 | 93 | 1017.1 |
| 20260902045454 | 72 | 80 | 0.0 | 0.0 | 0.03 | 0.21 | 0.03 | 93 | 1016.9 |
| 20260902044730 | 72 | 80 | 0.0 | 0.0 | 0.04 | 0.21 | 0.03 | 93 | 1016.8 |
| 20260902044231 | 72 | 80 | 0.0 | 0.0 | 0.04 | 0.21 | 0.03 | 93 | 1017.0 |
| 20260902043729 | 72 | 80 | 0.0 | 0.0 | 0.04 | 0.21 | 0.03 | 93 | 1017.2 |
| 20260902043458 | 72 | 80 | 0.0 | 0.0 | 0.04 | 0.20 | 0.03 | 93 | 1017.3 |
| 20260902042730 | 72 | 80 | 0.0 | 0.0 | 0.04 | 0.20 | 0.02 | 93 | 1017.3 |
| 20260902042231 | 72 | 80 | 0.0 | 0.0 | 0.03 | 0.19 | 0.01 | 93 | 1017.2 |
| 20260902041730 | 72 | 80 | 0.0 | 0.0 | 0.03 | 0.19 | 0.01 | 93 | 1017.3 |
| 20260902041231 | 72 | 80 | 0.0 | 0.0 | 0.03 | 0.20 | 0.01 | 93 | 1017.5 |
| 20260902040730 | 72 | 80 | 0.0 | 0.0 | 0.02 | 0.19 | 0.00 | 93 | 1017.5 |
| 20260902040229 | 72 | 80 | 0.0 | 0.0 | 0.02 | 0.19 | 0.00 | 93 | 1017.5 |
| 20260902035728 | 72 | 78 | 0.0 | 0.0 | 0.02 | 0.19 | 0.19 | 93 | 1017.4 |
| 20260902035232 | 72 | 78 | 0.0 | 2.0 | 0.02 | 0.19 | 0.19 | 93 | 1017.6 |
| 20260902034734 | 72 | 78 | 0.0 | 2.0 | 0.01 | 0.18 | 0.18 | 93 | 1017.5 |
| 20260902034234 | 72 | 78 | 0.0 | 2.0 | 0.01 | 0.18 | 0.18 | 93 | 1017.4 |
| 20260902033748 | 72 | 78 | 0.0 | 3.0 | 0.01 | 0.18 | 0.18 | 93 | 1017.2 |
| 20260902033235 | 72 | 78 | 1.0 | 4.0 | 0.00 | 0.17 | 0.17 | 93 | 1017.3 |
| 20260902032734 | 72 | 78 | 1.0 | 4.0 | 0.00 | 0.17 | 0.17 | 93 | 1017.3 |
| 20260902032242 | 72 | 105 | 1.0 | 4.0 | 0.00 | 0.17 | 0.17 | 93 | 1017.4 |
| 20260902031946 | 72 | 141 | 0.0 | 2.0 | 0.00 | 0.17 | 0.17 | 93 | 1016.8 |
| 20260902031226 | 72 | 141 | 1.0 | 3.0 | 0.00 | 0.17 | 0.17 | 93 | 1016.3 |
| 20260902030725 | 72 | 141 | 1.0 | 5.0 | 0.00 | 0.17 | 0.17 | 93 | 1016.0 |
| 20260902030222 | 72 | 141 | 1.0 | 5.0 | 0.00 | 0.17 | 0.17 | 93 | 1016.2 |
| 20260902025724 | 72 | 5 | 0.0 | 1.0 | 0.00 | 0.17 | 0.17 | 93 | 1015.8 |
| 20260902025224 | 72 | 355 | 0.0 | 0.0 | 0.00 | 0.17 | 0.17 | 93 | 1015.8 |
| 20260902024723 | 72 | 355 | 0.0 | 0.0 | 0.00 | 0.17 | 0.17 | 93 | 1015.1 |
| 20260902024448 | 72 | 355 | 0.0 | 0.0 | 0.00 | 0.17 | 0.17 | 93 | 1015.0 |
| 20260902023949 | 72 | 355 | 0.0 | 0.0 | 0.00 | 0.17 | 0.17 | 93 | 1015.1 |
| 20260902023222 | 72 | 355 | 0.0 | 0.0 | 0.00 | 0.17 | 0.17 | 93 | 1015.0 |
| 20260902022725 | 72 | 355 | 0.0 | 0.0 | 0.00 | 0.17 | 0.17 | 93 | 1015.0 |
| 20260902022445 | 72 | 355 | 0.0 | 0.0 | 0.00 | 0.17 | 0.17 | 93 | 1015.0 |
| 20260902021724 | 72 | 355 | 0.0 | 0.0 | 0.00 | 0.17 | 0.17 | 92 | 1014.9 |
| 20260902021441 | 72 | 355 | 0.0 | 0.0 | 0.00 | 0.17 | 0.17 | 92 | 1015.0 |
| 20260902020724 | 72 | 355 | 0.0 | 0.0 | 0.00 | 0.17 | 0.17 | 92 | 1015.0 |
| 20260902020222 | 72 | 355 | 1.0 | 7.0 | 0.00 | 0.17 | 0.17 | 92 | 1015.2 |
| 20260902015720 | 72 | 355 | 1.0 | 7.0 | 0.00 | 0.17 | 0.17 | 92 | 1015.4 |
| 20260902015218 | 72 | 355 | 0.0 | 4.0 | 0.00 | 0.17 | 0.17 | 92 | 1015.5 |
| 20260902014714 | 72 | 12 | 0.0 | 1.0 | 0.00 | 0.17 | 0.17 | 92 | 1015.4 |
| 20260902014214 | 72 | 69 | 0.0 | 0.0 | 0.00 | 0.17 | 0.17 | 92 | 1015.5 |
| 20260902013714 | 72 | 69 | 0.0 | 0.0 | 0.00 | 0.17 | 0.17 | 92 | 1015.3 |
| 20260902013654 | 72 | 69 | 0.0 | 0.0 | 0.00 | 0.17 | 0.17 | 92 | 1015.0 |
| 20260902012713 | 72 | 69 | 0.0 | 0.0 | 0.01 | 0.17 | 0.17 | 92 | 1014.8 |
| 20260902012212 | 72 | 69 | 0.0 | 0.0 | 0.07 | 0.17 | 0.17 | 92 | 1015.1 |
| 20260902011713 | 73 | 69 | 0.0 | 0.0 | 0.12 | 0.17 | 0.17 | 92 | 1014.8 |
| 20260902011213 | 73 | 68 | 0.0 | 0.0 | 0.13 | 0.17 | 0.17 | 92 | 1014.5 |
| 20260902010712 | 73 | 138 | 0.0 | 3.0 | 0.14 | 0.17 | 0.17 | 92 | 1014.5 |
| 20260902010212 | 74 | 138 | 0.0 | 3.0 | 0.14 | 0.17 | 0.17 | 92 | 1014.1 |
| 20260902005710 | 74 | 272 | 0.0 | 0.0 | 0.16 | 0.17 | 0.17 | 91 | 1014.4 |
| 20260902005207 | 74 | 272 | 0.0 | 0.0 | 0.16 | 0.17 | 0.17 | 91 | 1014.5 |
| 20260902004925 | 74 | 272 | 0.0 | 0.0 | 0.16 | 0.17 | 0.17 | 91 | 1014.2 |
| 20260902004203 | 74 | 272 | 0.0 | 1.0 | 0.16 | 0.17 | 0.17 | 91 | 1014.5 |
| 20260902003704 | 74 | 49 | 1.0 | 3.0 | 0.16 | 0.17 | 0.17 | 91 | 1014.5 |
| 20260902003647 | 74 | 46 | 2.0 | 6.0 | 0.16 | 0.17 | 0.17 | 90 | 1014.2 |
| 20260902002926 | 74 | 46 | 3.0 | 15.0 | 0.15 | 0.16 | 0.16 | 88 | 1014.0 |
| 20260902002651 | 75 | 42 | 6.0 | 15.0 | 0.09 | 0.10 | 0.10 | 88 | 1014.1 |
| 20260902001700 | 74 | 350 | 8.0 | 20.0 | 0.04 | 0.05 | 0.06 | 88 | 1014.1 |
| 20260902001206 | 74 | 17 | 11.0 | 31.0 | 0.03 | 0.04 | 0.04 | 86 | 1014.1 |
| 20260902000656 | 75 | 101 | 12.0 | 31.0 | 0.02 | 0.03 | 0.03 | 85 | 1014.0 |
| 20260902000154 | 76 | 38 | 10.0 | 32.0 | 0.02 | 0.03 | 0.03 | 82 | 1014.1 |
| 20260902000142 | 81 | 329 | 5.0 | 32.0 | 0.00 | 0.01 | 0.01 | 74 | 1015.0 |
| 20260901235153 | 84 | 12 | 1.0 | 8.0 | 0.00 | 0.01 | 0.01 | 83 | 1013.9 |
| 20260901234653 | 84 | 236 | 0.0 | 3.0 | 0.00 | 0.01 | 0.01 | 83 | 1013.2 |
| 20260901234156 | 84 | 236 | 1.0 | 4.0 | 0.00 | 0.01 | 0.01 | 83 | 1012.3 |
| 20260901234141 | 84 | 236 | 1.0 | 4.0 | 0.00 | 0.01 | 0.01 | 82 | 1011.9 |
| 20260901233422 | 85 | 236 | 0.0 | 0.0 | 0.00 | 0.01 | 0.01 | 82 | 1011.9 |
| 20260901232650 | 85 | 236 | 0.0 | 0.0 | 0.00 | 0.01 | 0.01 | 81 | 1012.4 |
| 20260901232149 | 85 | 236 | 0.0 | 0.0 | 0.00 | 0.01 | 0.01 | 82 | 1012.9 |
| 20260901231652 | 85 | 236 | 0.0 | 2.0 | 0.00 | 0.01 | 0.01 | 81 | 1013.0 |
| 20260901231149 | 86 | 236 | 0.0 | 2.0 | 0.00 | 0.01 | 0.01 | 80 | 1013.1 |
| 20260901230648 | 86 | 236 | 0.0 | 2.0 | 0.00 | 0.01 | 0.01 | 80 | 1013.2 |
| 20260901230411 | 86 | 236 | 0.0 | 2.0 | 0.00 | 0.01 | 0.01 | 80 | 1013.2 |
| 20260901225646 | 86 | 236 | 0.0 | 2.0 | 0.00 | 0.01 | 0.01 | 78 | 1013.2 |
| 20260901225159 | 86 | 236 | 0.0 | 0.0 | 0.00 | 0.01 | 0.01 | 78 | 1013.3 |
| 20260901225145 | 86 | 236 | 0.0 | 2.0 | 0.00 | 0.01 | 0.01 | 79 | 1013.2 |
| 20260901224419 | 87 | 236 | 0.0 | 0.0 | 0.00 | 0.01 | 0.01 | 79 | 1013.4 |
| 20260901223646 | 87 | 236 | 0.0 | 2.0 | 0.00 | 0.01 | 0.01 | 79 | 1013.3 |
| 20260901223139 | 87 | 236 | 0.0 | 3.0 | 0.00 | 0.01 | 0.01 | 79 | 1013.4 |
| 20260901222635 | 87 | 236 | 0.0 | 3.0 | 0.00 | 0.01 | 0.01 | 76 | 1013.6 |
| 20260901222333 | 88 | 236 | 1.0 | 4.0 | 0.00 | 0.01 | 0.01 | 75 | 1013.0 |
| 20260901222218 | 88 | 236 | 1.0 | 4.0 | 0.00 | 0.01 | 0.01 | 75 | 1013.2 |
| 20260901221114 | 88 | 236 | 1.0 | 4.0 | 0.00 | 0.01 | 0.01 | 75 | 1013.1 |
| 20260901220609 | 88 | 236 | 2.0 | 4.0 | 0.00 | 0.01 | 0.01 | 75 | 1013.2 |
| 20260901220108 | 88 | 236 | 1.0 | 3.0 | 0.00 | 0.01 | 0.01 | 75 | 1013.2 |
| 20260901215611 | 88 | 236 | 2.0 | 5.0 | 0.00 | 0.01 | 0.01 | 75 | 1013.1 |
| 20260901215333 | 88 | 236 | 1.0 | 5.0 | 0.00 | 0.01 | 0.01 | 73 | 1013.2 |
| 20260901214607 | 88 | 240 | 1.0 | 9.0 | 0.00 | 0.01 | 0.01 | 73 | 1013.3 |
| 20260901214555 | 88 | 240 | 3.0 | 9.0 | 0.00 | 0.01 | 0.01 | 72 | 1013.3 |
| 20260901213609 | 89 | 194 | 3.0 | 8.0 | 0.00 | 0.01 | 0.01 | 72 | 1013.4 |
| 20260901213336 | 89 | 206 | 2.0 | 7.0 | 0.00 | 0.01 | 0.01 | 73 | 1013.4 |
| 20260901212608 | 89 | 213 | 2.0 | 7.0 | 0.00 | 0.01 | 0.01 | 71 | 1013.4 |
| 20260901212107 | 89 | 225 | 2.0 | 6.0 | 0.00 | 0.01 | 0.01 | 72 | 1013.4 |
| 20260901211608 | 89 | 223 | 4.0 | 10.0 | 0.00 | 0.01 | 0.01 | 70 | 1013.3 |
| 20260901211105 | 89 | 223 | 3.0 | 10.0 | 0.00 | 0.01 | 0.01 | 70 | 1013.4 |
| 20260901210828 | 90 | 207 | 2.0 | 7.0 | 0.00 | 0.01 | 0.01 | 71 | 1013.3 |
| 20260901210106 | 90 | 202 | 2.0 | 6.0 | 0.00 | 0.01 | 0.01 | 72 | 1013.4 |
| 20260901205603 | 89 | 205 | 3.0 | 7.0 | 0.00 | 0.01 | 0.01 | 71 | 1013.4 |
| 20260901205104 | 89 | 219 | 3.0 | 7.0 | 0.00 | 0.01 | 0.01 | 73 | 1013.5 |
| 20260901204602 | 89 | 210 | 3.0 | 7.0 | 0.00 | 0.01 | 0.01 | 70 | 1013.5 |
| 20260901204102 | 89 | 249 | 3.0 | 7.0 | 0.00 | 0.01 | 0.01 | 72 | 1013.5 |
| 20260901203559 | 89 | 214 | 3.0 | 7.0 | 0.00 | 0.01 | 0.01 | 72 | 1013.5 |
| 20260901203051 | 89 | 171 | 4.0 | 9.0 | 0.00 | 0.01 | 0.01 | 74 | 1013.6 |
| 20260901202552 | 89 | 198 | 4.0 | 9.0 | 0.00 | 0.01 | 0.01 | 70 | 1013.7 |
| 20260901202054 | 88 | 204 | 3.0 | 8.0 | 0.00 | 0.01 | 0.01 | 72 | 1013.7 |
| 20260901201816 | 88 | 224 | 3.0 | 5.0 | 0.00 | 0.01 | 0.01 | 73 | 1013.7 |
| 20260901201052 | 88 | 239 | 2.0 | 7.0 | 0.00 | 0.01 | 0.01 | 74 | 1013.9 |
| 20260901200552 | 88 | 212 | 2.0 | 7.0 | 0.00 | 0.01 | 0.01 | 76 | 1014.0 |
| 20260901200108 | 87 | 252 | 2.0 | 7.0 | 0.00 | 0.01 | 0.01 | 75 | 1014.0 |
| 20260901195558 | 87 | 196 | 2.0 | 6.0 | 0.00 | 0.01 | 0.01 | 75 | 1014.1 |
| 20260901195054 | 87 | 195 | 1.0 | 6.0 | 0.00 | 0.01 | 0.01 | 75 | 1014.0 |
| 20260901194550 | 87 | 261 | 1.0 | 4.0 | 0.00 | 0.01 | 0.01 | 76 | 1014.0 |
| 20260901194053 | 87 | 261 | 0.0 | 4.0 | 0.00 | 0.01 | 0.01 | 77 | 1014.2 |
| 20260901193552 | 87 | 220 | 1.0 | 5.0 | 0.00 | 0.01 | 0.01 | 77 | 1014.2 |
| 20260901193050 | 87 | 220 | 1.0 | 5.0 | 0.00 | 0.01 | 0.01 | 76 | 1014.2 |
| 20260901192550 | 87 | 226 | 1.0 | 5.0 | 0.00 | 0.01 | 0.01 | 75 | 1014.2 |
| 20260901192052 | 87 | 277 | 2.0 | 8.0 | 0.00 | 0.01 | 0.01 | 75 | 1014.4 |
| 20260901191550 | 87 | 249 | 2.0 | 8.0 | 0.00 | 0.01 | 0.01 | 75 | 1014.4 |
| 20260901191051 | 87 | 232 | 2.0 | 6.0 | 0.00 | 0.01 | 0.01 | 72 | 1014.5 |
| 20260901190552 | 88 | 215 | 2.0 | 7.0 | 0.00 | 0.01 | 0.01 | 71 | 1014.5 |
| 20260901185548 | 89 | 278 | 3.0 | 8.0 | 0.00 | 0.01 | 0.01 | 71 | 1014.6 |
| 20260901185050 | 89 | 260 | 2.0 | 8.0 | 0.00 | 0.01 | 0.01 | 69 | 1014.6 |
| 20260901184550 | 89 | 226 | 3.0 | 8.0 | 0.00 | 0.01 | 0.01 | 70 | 1014.6 |
| 20260901184053 | 88 | 223 | 3.0 | 7.0 | 0.00 | 0.01 | 0.01 | 71 | 1014.7 |
| 20260901183808 | 88 | 188 | 2.0 | 7.0 | 0.00 | 0.01 | 0.01 | 70 | 1014.8 |
| 20260901183050 | 88 | 208 | 3.0 | 8.0 | 0.00 | 0.01 | 0.01 | 72 | 1014.8 |
| 20260901182546 | 88 | 209 | 3.0 | 8.0 | 0.00 | 0.01 | 0.01 | 70 | 1014.8 |
| 20260901182044 | 89 | 245 | 3.0 | 8.0 | 0.00 | 0.01 | 0.01 | 72 | 1014.8 |
| 20260901181545 | 88 | 200 | 3.0 | 11.0 | 0.00 | 0.01 | 0.01 | 70 | 1014.8 |
| 20260901181047 | 88 | 221 | 3.0 | 11.0 | 0.00 | 0.01 | 0.01 | 74 | 1014.7 |
| 20260901180805 | 88 | 218 | 3.0 | 7.0 | 0.00 | 0.01 | 0.01 | 74 | 1014.7 |
| 20260901180100 | 87 | 207 | 3.0 | 6.0 | 0.00 | 0.01 | 0.01 | 71 | 1014.7 |
| 20260901175544 | 87 | 224 | 3.0 | 12.0 | 0.00 | 0.01 | 0.01 | 73 | 1014.7 |
| 20260901175044 | 87 | 212 | 4.0 | 12.0 | 0.00 | 0.01 | 0.01 | 74 | 1014.7 |
| 20260901174546 | 87 | 233 | 3.0 | 8.0 | 0.00 | 0.01 | 0.01 | 72 | 1014.8 |
| 20260901174044 | 87 | 283 | 3.0 | 8.0 | 0.00 | 0.01 | 0.01 | 71 | 1014.7 |
| 20260901173548 | 87 | 196 | 3.0 | 7.0 | 0.00 | 0.01 | 0.01 | 72 | 1014.7 |
| 20260901173044 | 87 | 236 | 3.0 | 9.0 | 0.00 | 0.01 | 0.01 | 72 | 1014.8 |
| 20260901172810 | 87 | 205 | 4.0 | 9.0 | 0.00 | 0.01 | 0.01 | 73 | 1014.8 |
| 20260901172305 | 87 | 211 | 3.0 | 9.0 | 0.00 | 0.01 | 0.01 | 74 | 1014.9 |
| 20260901171545 | 87 | 234 | 2.0 | 5.0 | 0.00 | 0.01 | 0.01 | 77 | 1014.9 |
| 20260901171306 | 86 | 271 | 2.0 | 6.0 | 0.00 | 0.01 | 0.01 | 75 | 1015.1 |
| 20260901170559 | 86 | 202 | 2.0 | 6.0 | 0.00 | 0.01 | 0.01 | 81 | 1015.2 |
| 20260901170059 | 85 | 192 | 2.0 | 5.0 | 0.00 | 0.01 | 0.01 | 81 | 1015.3 |
| 20260901170027 | 85 | 191 | 2.0 | 5.0 | 0.00 | 0.01 | 0.01 | 80 | 1015.3 |
| 20260901165040 | 85 | 228 | 2.0 | 5.0 | 0.00 | 0.01 | 0.01 | 81 | 1015.3 |
| 20260901164541 | 84 | 157 | 2.0 | 6.0 | 0.00 | 0.01 | 0.01 | 83 | 1015.3 |
| 20260901164043 | 83 | 163 | 1.0 | 6.0 | 0.00 | 0.01 | 0.01 | 84 | 1015.5 |
| 20260901163758 | 83 | 219 | 0.0 | 2.0 | 0.00 | 0.01 | 0.01 | 85 | 1015.6 |
| 20260901163039 | 82 | 219 | 0.0 | 2.0 | 0.00 | 0.01 | 0.01 | 84 | 1015.6 |
| 20260901162757 | 82 | 219 | 0.0 | 0.0 | 0.00 | 0.01 | 0.01 | 84 | 1015.7 |
| 20260901162306 | 81 | 219 | 0.0 | 0.0 | 0.00 | 0.01 | 0.01 | 87 | 1015.8 |
| 20260901161546 | 81 | 219 | 0.0 | 0.0 | 0.00 | 0.01 | 0.01 | 86 | 1015.8 |
| 20260901161312 | 81 | 213 | 0.0 | 0.0 | 0.00 | 0.01 | 0.01 | 85 | 1015.9 |
| 20260901160758 | 81 | 213 | 0.0 | 0.0 | 0.00 | 0.01 | 0.01 | 84 | 1015.9 |
| 20260901160048 | 82 | 213 | 0.0 | 1.0 | 0.00 | 0.01 | 0.01 | 83 | 1015.9 |
| 20260901155536 | 81 | 213 | 0.0 | 1.0 | 0.00 | 0.01 | 0.01 | 84 | 1015.8 |
| 20260901155040 | 81 | 213 | 0.0 | 1.0 | 0.00 | 0.01 | 0.01 | 84 | 1015.8 |
| 20260901154533 | 81 | 213 | 0.0 | 0.0 | 0.00 | 0.01 | 0.01 | 84 | 1015.8 |
| 20260901154032 | 81 | 213 | 0.0 | 1.0 | 0.00 | 0.01 | 0.01 | 85 | 1015.8 |
| 20260901153534 | 81 | 213 | 0.0 | 1.0 | 0.00 | 0.01 | 0.01 | 86 | 1015.8 |
| 20260901153033 | 81 | 213 | 0.0 | 2.0 | 0.00 | 0.01 | 0.01 | 86 | 1015.9 |
| 20260901152534 | 81 | 213 | 0.0 | 3.0 | 0.00 | 0.01 | 0.01 | 84 | 1015.9 |
| 20260901152041 | 81 | 213 | 0.0 | 3.0 | 0.00 | 0.01 | 0.01 | 84 | 1015.8 |
| 20260901151533 | 81 | 213 | 1.0 | 3.0 | 0.00 | 0.01 | 0.01 | 84 | 1015.9 |
| 20260901151032 | 81 | 213 | 1.0 | 4.0 | 0.00 | 0.01 | 0.01 | 82 | 1015.9 |
| 20260901150530 | 81 | 213 | 1.0 | 5.0 | 0.00 | 0.01 | 0.01 | 83 | 1015.9 |
| 20260901150300 | 81 | 213 | 1.0 | 5.0 | 0.00 | 0.01 | 0.01 | 82 | 1015.9 |
| 20260901145530 | 82 | 212 | 1.0 | 4.0 | 0.00 | 0.01 | 0.01 | 82 | 1016.0 |
| 20260901145033 | 82 | 211 | 2.0 | 7.0 | 0.00 | 0.01 | 0.01 | 83 | 1016.0 |
| 20260901144534 | 81 | 211 | 3.0 | 7.0 | 0.00 | 0.01 | 0.01 | 83 | 1016.0 |
| 20260901144036 | 82 | 260 | 3.0 | 6.0 | 0.00 | 0.01 | 0.01 | 83 | 1015.9 |
| 20260901143528 | 82 | 214 | 2.0 | 6.0 | 0.00 | 0.01 | 0.01 | 85 | 1016.0 |
| 20260901143035 | 81 | 209 | 2.0 | 6.0 | 0.00 | 0.01 | 0.01 | 86 | 1015.9 |
| 20260901142524 | 80 | 204 | 2.0 | 5.0 | 0.00 | 0.01 | 0.01 | 87 | 1015.9 |
| 20260901142031 | 79 | 197 | 1.0 | 3.0 | 0.00 | 0.01 | 0.01 | 87 | 1015.9 |
| 20260901141747 | 79 | 195 | 2.0 | 5.0 | 0.00 | 0.01 | 0.01 | 88 | 1016.0 |
| 20260901141035 | 79 | 196 | 2.0 | 6.0 | 0.00 | 0.01 | 0.01 | 89 | 1015.9 |
| 20260901140742 | 78 | 176 | 2.0 | 6.0 | 0.00 | 0.01 | 0.01 | 91 | 1015.9 |
| 20260901140028 | 78 | 163 | 1.0 | 3.0 | 0.00 | 0.01 | 0.01 | 91 | 1016.0 |
| 20260901135745 | 77 | 288 | 1.0 | 3.0 | 0.00 | 0.01 | 0.01 | 91 | 1016.2 |
| 20260901135019 | 77 | 288 | 0.0 | 3.0 | 0.00 | 0.01 | 0.01 | 92 | 1016.2 |
| 20260901134518 | 76 | 111 | 0.0 | 0.0 | 0.00 | 0.01 | 0.01 | 92 | 1016.2 |
| 20260901134016 | 76 | 112 | 0.0 | 0.0 | 0.00 | 0.01 | 0.01 | 93 | 1016.2 |
| 20260901133516 | 75 | 112 | 0.0 | 0.0 | 0.00 | 0.01 | 0.01 | 93 | 1016.1 |
| 20260901133015 | 75 | 112 | 0.0 | 0.0 | 0.00 | 0.01 | 0.01 | 93 | 1016.1 |
| 20260901132520 | 75 | 112 | 0.0 | 0.0 | 0.00 | 0.01 | 0.01 | 93 | 1016.1 |
| 20260901132243 | 75 | 112 | 0.0 | 0.0 | 0.00 | 0.01 | 0.01 | 93 | 1016.1 |
| 20260901131521 | 74 | 112 | 0.0 | 0.0 | 0.00 | 0.01 | 0.01 | 93 | 1016.1 |
| 20260901131021 | 74 | 112 | 0.0 | 0.0 | 0.00 | 0.01 | 0.01 | 93 | 1016.2 |
| 20260901130519 | 74 | 112 | 0.0 | 0.0 | 0.00 | 0.01 | 0.01 | 93 | 1016.3 |
| 20260901130030 | 74 | 112 | 0.0 | 0.0 | 0.00 | 0.01 | 0.01 | 93 | 1016.2 |
| 20260901125530 | 74 | 112 | 0.0 | 0.0 | 0.00 | 0.01 | 0.01 | 93 | 1016.2 |
| 20260901125015 | 74 | 112 | 0.0 | 0.0 | 0.00 | 0.01 | 0.01 | 94 | 1016.3 |
| 20260901124519 | 74 | 112 | 0.0 | 0.0 | 0.00 | 0.01 | 0.01 | 94 | 1016.3 |
| 20260901124015 | 74 | 112 | 0.0 | 0.0 | 0.00 | 0.01 | 0.01 | 94 | 1016.4 |
| 20260901123515 | 74 | 112 | 0.0 | 0.0 | 0.00 | 0.01 | 0.01 | 94 | 1016.4 |
| 20260901123234 | 73 | 112 | 0.0 | 0.0 | 0.00 | 0.01 | 0.01 | 94 | 1016.5 |
| 20260901122512 | 73 | 112 | 0.0 | 0.0 | 0.00 | 0.01 | 0.01 | 94 | 1016.4 |
| 20260901122012 | 73 | 112 | 0.0 | 0.0 | 0.00 | 0.01 | 0.01 | 94 | 1016.3 |
| 20260901121511 | 73 | 112 | 0.0 | 0.0 | 0.00 | 0.01 | 0.01 | 94 | 1016.3 |
| 20260901121235 | 73 | 112 | 0.0 | 0.0 | 0.00 | 0.01 | 0.01 | 94 | 1016.3 |
| 20260901120512 | 73 | 112 | 0.0 | 0.0 | 0.00 | 0.01 | 0.01 | 94 | 1016.2 |
| 20260901120009 | 73 | 112 | 0.0 | 0.0 | 0.00 | 0.01 | 0.01 | 94 | 1016.3 |
| 20260901115509 | 72 | 112 | 0.0 | 0.0 | 0.00 | 0.01 | 0.01 | 94 | 1016.3 |
| 20260901115010 | 72 | 112 | 0.0 | 0.0 | 0.00 | 0.01 | 0.01 | 94 | 1016.3 |
| 20260901114514 | 72 | 112 | 0.0 | 0.0 | 0.00 | 0.01 | 0.01 | 94 | 1016.4 |
| 20260901114016 | 72 | 112 | 0.0 | 0.0 | 0.00 | 0.01 | 0.01 | 94 | 1016.4 |
| 20260901113512 | 71 | 112 | 0.0 | 0.0 | 0.00 | 0.01 | 0.01 | 94 | 1016.6 |
| 20260901113004 | 71 | 112 | 0.0 | 0.0 | 0.00 | 0.01 | 0.01 | 94 | 1016.5 |
| 20260901112502 | 71 | 112 | 0.0 | 0.0 | 0.00 | 0.01 | 0.01 | 94 | 1016.5 |
| 20260901112226 | 71 | 112 | 0.0 | 0.0 | 0.00 | 0.01 | 0.01 | 94 | 1016.5 |
| 20260901111716 | 71 | 112 | 0.0 | 0.0 | 0.00 | 0.01 | 0.01 | 94 | 1016.5 |
| 20260901110952 | 71 | 112 | 0.0 | 0.0 | 0.00 | 0.01 | 0.01 | 94 | 1016.4 |
| 20260901110449 | 71 | 112 | 0.0 | 0.0 | 0.00 | 0.01 | 0.01 | 94 | 1016.3 |
| 20260901105948 | 71 | 112 | 0.0 | 0.0 | 0.00 | 0.01 | 0.01 | 94 | 1016.3 |
| 20260901105445 | 71 | 112 | 0.0 | 0.0 | 0.00 | 0.01 | 0.01 | 94 | 1016.3 |
| 20260901104947 | 71 | 112 | 0.0 | 0.0 | 0.00 | 0.01 | 0.01 | 94 | 1016.4 |
| 20260901104444 | 71 | 112 | 0.0 | 0.0 | 0.00 | 0.01 | 0.01 | 94 | 1016.3 |
| 20260901103944 | 71 | 112 | 0.0 | 0.0 | 0.00 | 0.01 | 0.01 | 94 | 1016.1 |
| 20260901103444 | 71 | 112 | 0.0 | 0.0 | 0.00 | 0.01 | 0.01 | 94 | 1016.1 |
| 20260901102941 | 71 | 112 | 0.0 | 0.0 | 0.00 | 0.01 | 0.01 | 94 | 1016.2 |
| 20260901102454 | 71 | 112 | 0.0 | 0.0 | 0.00 | 0.01 | 0.01 | 94 | 1016.3 |
| 20260901101942 | 71 | 112 | 0.0 | 0.0 | 0.00 | 0.01 | 0.01 | 94 | 1016.4 |
| 20260901101440 | 71 | 112 | 0.0 | 0.0 | 0.00 | 0.01 | 0.01 | 94 | 1016.4 |
| 20260901100938 | 71 | 112 | 0.0 | 0.0 | 0.00 | 0.01 | 0.01 | 94 | 1016.2 |
| 20260901100440 | 71 | 112 | 0.0 | 0.0 | 0.00 | 0.01 | 0.01 | 94 | 1016.1 |
| 20260901095941 | 71 | 112 | 0.0 | 0.0 | 0.00 | 0.01 | 0.01 | 94 | 1016.1 |
| 20260901095436 | 71 | 112 | 0.0 | 0.0 | 0.00 | 0.01 | 0.01 | 94 | 1016.2 |
| 20260901094939 | 71 | 112 | 0.0 | 0.0 | 0.00 | 0.01 | 0.01 | 94 | 1016.3 |
| 20260901094431 | 71 | 112 | 0.0 | 0.0 | 0.00 | 0.01 | 0.01 | 94 | 1016.3 |
| 20260901093927 | 71 | 112 | 0.0 | 0.0 | 0.00 | 0.01 | 0.01 | 94 | 1016.2 |
| 20260901093649 | 71 | 112 | 0.0 | 1.0 | 0.00 | 0.01 | 0.01 | 94 | 1016.2 |
| 20260901093144 | 71 | 112 | 0.0 | 0.0 | 0.00 | 0.01 | 0.01 | 94 | 1016.2 |
| 20260901093025 | 71 | 112 | 0.0 | 1.0 | 0.00 | 0.01 | 0.01 | 94 | 1016.2 |
| 20260901091922 | 71 | 112 | 0.0 | 0.0 | 0.00 | 0.01 | 0.01 | 94 | 1016.3 |
| 20260901091424 | 71 | 112 | 0.0 | 0.0 | 0.00 | 0.01 | 0.01 | 94 | 1016.2 |
| 20260901090919 | 71 | 112 | 0.0 | 0.0 | 0.00 | 0.01 | 0.01 | 94 | 1016.2 |
| 20260901090422 | 71 | 112 | 0.0 | 0.0 | 0.00 | 0.01 | 0.01 | 94 | 1016.3 |
| 20260901085918 | 71 | 112 | 0.0 | 0.0 | 0.00 | 0.02 | 0.01 | 94 | 1016.4 |
| 20260901085418 | 71 | 112 | 0.0 | 0.0 | 0.00 | 0.02 | 0.01 | 94 | 1016.4 |
| 20260901084920 | 71 | 112 | 0.0 | 0.0 | 0.00 | 0.02 | 0.01 | 94 | 1016.5 |
| 20260901084418 | 71 | 112 | 0.0 | 0.0 | 0.00 | 0.02 | 0.01 | 94 | 1016.5 |
| 20260901083917 | 71 | 112 | 0.0 | 0.0 | 0.00 | 0.02 | 0.01 | 94 | 1016.5 |